Location: East Rochester
(43.1122°N, 77.4867°W)
Time: 04:21:36
(UTC+00:00)

Envisat - Visible Passes

Search period start: 14 July 2024 00:00
Search period end: 24 July 2024 00:00
Orbit: 762 x 764 km, 98.3° (Epoch: 13 July)

Date Brightness Start Highest point End Pass type
(mag) Time Alt. Az. Time Alt. Az. Time Alt. Az.
14 Jul 5.3 07:13:59 10° NE 07:17:16 17° E 07:20:32 10° SE visible
14 Jul 3.2 08:51:37 10° N 08:56:37 59° WNW 09:01:35 10° SSW visible
15 Jul 3.4 08:14:13 10° NNE 08:19:16 63° ESE 08:24:17 10° S visible
16 Jul 4.6 07:37:20 10° NE 07:41:42 28° E 07:46:02 10° SSE visible
17 Jul 5.5 07:01:43 10° ENE 07:03:56 13° E 07:06:08 10° ESE visible
17 Jul 3.0 08:38:23 10° N 08:43:28 78° WNW 08:48:32 10° SSW visible
18 Jul 3.8 08:01:08 10° NNE 08:06:03 48° E 08:10:55 10° S visible
19 Jul 5.0 07:24:31 10° NE 07:28:25 22° E 07:32:16 10° SE visible
19 Jul 3.4 09:02:44 10° N 09:07:35 46° WNW 09:12:24 10° SW visible
20 Jul 3.1 08:25:11 10° NNE 08:30:18 81° ESE 08:35:22 10° S visible
21 Jul 4.3 07:48:07 10° NNE 07:52:47 36° E 07:57:26 10° SSE visible
22 Jul 5.3 07:11:54 10° NE 07:15:05 17° E 07:18:15 10° SE visible
22 Jul 3.1 08:49:26 10° N 08:54:27 61° WNW 08:59:26 10° SSW visible
23 Jul 3.4 08:12:03 10° NNE 08:17:05 61° E 08:21:58 11° S visible
